Wetterdaten: Dienstag, 10.04.2012
Datum Zeit Temp. Innen Temp. Aussen UV X Diff Temp. Feuchte Inne Feuchte Auss Sonnenschein Luftdruck Regen ab 0,1 Wind Sonnenschein T Regendauer Windben
10.04.2012 00:00 15,4 C 9,2 C 0,0 UV-I 0,0 C 60 % 94 % 0 % 997,3 hPa 0,0 l/m 5,2 km/h (1 Bft) 0 min 0 min 0,0 km/h (0 Bft)
10.04.2012 00:05 15,4 C 9,2 C 0,0 UV-I 0,0 C 60 % 94 % 0 % 996,9 hPa 0,0 l/m 5,6 km/h (1 Bft) 0 min 2 min 6,4 km/h (2 Bft)
10.04.2012 00:10 15,4 C 9,2 C 0,0 UV-I 0,0 C 60 % 94 % 0 % 996,9 hPa 0,0 l/m 4,8 km/h (1 Bft) 0 min 2 min 0,0 km/h (0 Bft)
10.04.2012 00:15 15,4 C 9,2 C 0,0 UV-I 0,0 C 60 % 94 % 0 % 996,9 hPa 0,0 l/m 6,0 km/h (2 Bft) 0 min 0 min 17,3 km/h (3 Bft)
10.04.2012 00:20 15,4 C 9,2 C 0,0 UV-I 0,0 C 60 % 94 % 0 % 996,9 hPa 0,0 l/m 6,4 km/h (2 Bft) 0 min 2 min 6,8 km/h (2 Bft)
10.04.2012 00:25 15,4 C 9,2 C 0,0 UV-I 0,0 C 60 % 95 % 0 % 997,0 hPa 0,0 l/m 6,8 km/h (2 Bft) 0 min 2 min 5,6 km/h (1 Bft)
10.04.2012 00:30 15,4 C 9,2 C 0,0 UV-I 0,0 C 60 % 94 % 0 % 997,0 hPa 0,1 l/m 5,6 km/h (1 Bft) 0 min 2 min 12,8 km/h (3 Bft)
10.04.2012 00:35 15,4 C 9,2 C 0,0 UV-I 0,0 C 60 % 94 % 0 % 997,0 hPa 0,0 l/m 4,8 km/h (1 Bft) 0 min 2 min 7,2 km/h (2 Bft)
10.04.2012 00:40 15,4 C 9,2 C 0,0 UV-I 0,0 C 60 % 94 % 0 % 997,0 hPa 0,0 l/m 6,0 km/h (2 Bft) 0 min 2 min 9,6 km/h (2 Bft)
10.04.2012 00:45 15,4 C 9,2 C 0,0 UV-I 0,0 C 60 % 94 % 0 % 996,8 hPa 0,0 l/m 7,2 km/h (2 Bft) 0 min 2 min 9,6 km/h (2 Bft)
10.04.2012 00:50 15,4 C 9,2 C 0,0 UV-I 0,0 C 60 % 94 % 0 % 996,8 hPa 0,1 l/m 6,4 km/h (2 Bft) 0 min 2 min 6,8 km/h (2 Bft)
10.04.2012 00:55 15,4 C 9,2 C 0,0 UV-I 0,0 C 60 % 94 % 0 % 996,8 hPa 0,0 l/m 6,8 km/h (2 Bft) 0 min 2 min 4,0 km/h (1 Bft)
10.04.2012 01:00 15,4 C 9,2 C 0,0 UV-I 0,0 C 60 % 94 % 0 % 996,8 hPa 0,1 l/m 6,8 km/h (2 Bft) 0 min 2 min 6,8 km/h (2 Bft)
10.04.2012 01:05 15,4 C 9,2 C 0,0 UV-I 0,0 C 60 % 95 % 0 % 996,6 hPa 0,0 l/m 4,8 km/h (1 Bft) 0 min 2 min 0,0 km/h (0 Bft)
10.04.2012 01:10 15,2 C 9,2 C 0,0 UV-I 0,0 C 60 % 94 % 0 % 996,6 hPa 0,0 l/m 4,0 km/h (1 Bft) 0 min 2 min 9,2 km/h (2 Bft)
10.04.2012 01:15 15,2 C 9,2 C 0,0 UV-I 0,0 C 60 % 95 % 0 % 996,6 hPa 0,1 l/m 5,6 km/h (1 Bft) 0 min 2 min 6,8 km/h (2 Bft)
10.04.2012 01:20 15,2 C 9,2 C 0,0 UV-I 0,0 C 60 % 94 % 0 % 996,6 hPa 0,0 l/m 6,0 km/h (2 Bft) 0 min 2 min 6,0 km/h (2 Bft)
10.04.2012 01:25 15,4 C 9,2 C 0,0 UV-I 0,0 C 60 % 95 % 0 % 996,2 hPa 0,1 l/m 6,4 km/h (2 Bft) 0 min 2 min 21,3 km/h (4 Bft)
10.04.2012 01:30 15,2 C 9,2 C 0,0 UV-I 0,0 C 60 % 95 % 0 % 996,2 hPa 0,0 l/m 6,0 km/h (2 Bft) 0 min 2 min 7,2 km/h (2 Bft)
10.04.2012 01:35 15,2 C 9,3 C 0,0 UV-I 0,0 C 60 % 95 % 0 % 996,2 hPa 0,0 l/m 6,4 km/h (2 Bft) 0 min 2 min 6,8 km/h (2 Bft)
10.04.2012 01:40 15,2 C 9,3 C 0,0 UV-I 0,0 C 60 % 95 % 0 % 996,2 hPa 0,1 l/m 6,0 km/h (2 Bft) 0 min 2 min 13,7 km/h (3 Bft)
10.04.2012 01:45 15,2 C 9,3 C 0,0 UV-I 0,0 C 61 % 95 % 0 % 996,2 hPa 0,0 l/m 6,0 km/h (2 Bft) 0 min 2 min 0,0 km/h (0 Bft)
10.04.2012 01:50 15,2 C 9,3 C 0,0 UV-I 0,0 C 60 % 95 % 0 % 996,2 hPa 0,1 l/m 6,0 km/h (2 Bft) 0 min 2 min 7,6 km/h (2 Bft)
10.04.2012 01:55 15,2 C 9,4 C 0,0 UV-I 0,0 C 61 % 95 % 0 % 996,2 hPa 0,0 l/m 4,8 km/h (1 Bft) 0 min 2 min 0,0 km/h (0 Bft)
10.04.2012 02:00 15,2 C 9,5 C 0,0 UV-I 0,0 C 61 % 95 % 0 % 996,2 hPa 0,0 l/m 5,2 km/h (1 Bft) 0 min 2 min 10,8 km/h (2 Bft)
10.04.2012 02:05 15,3 C 9,4 C 0,0 UV-I 0,0 C 61 % 95 % 0 % 996,1 hPa 0,0 l/m 4,8 km/h (1 Bft) 0 min 2 min 0,0 km/h (0 Bft)
10.04.2012 02:10 15,3 C 9,5 C 0,0 UV-I 0,0 C 61 % 95 % 0 % 996,1 hPa 0,1 l/m 4,8 km/h (1 Bft) 0 min 0 min 7,6 km/h (2 Bft)
10.04.2012 02:15 15,3 C 9,5 C 0,0 UV-I 0,0 C 61 % 95 % 0 % 996,1 hPa 0,0 l/m 4,4 km/h (1 Bft) 0 min 2 min 5,6 km/h (1 Bft)
10.04.2012 02:20 15,3 C 9,5 C 0,0 UV-I 0,0 C 61 % 95 % 0 % 996,1 hPa 0,0 l/m 4,0 km/h (1 Bft) 0 min 2 min 8,0 km/h (2 Bft)
10.04.2012 02:25 15,3 C 9,4 C 0,0 UV-I 0,0 C 61 % 94 % 0 % 995,9 hPa 0,0 l/m 5,2 km/h (1 Bft) 0 min 2 min 8,0 km/h (2 Bft)
10.04.2012 02:30 15,2 C 9,5 C 0,0 UV-I 0,0 C 61 % 94 % 0 % 995,9 hPa 0,0 l/m 6,4 km/h (2 Bft) 0 min 2 min 4,0 km/h (1 Bft)
10.04.2012 02:35 15,3 C 9,5 C 0,0 UV-I 0,0 C 61 % 94 % 0 % 995,9 hPa 0,1 l/m 6,8 km/h (2 Bft) 0 min 2 min 12,0 km/h (2 Bft)
10.04.2012 02:40 15,3 C 9,5 C 0,0 UV-I 0,0 C 61 % 94 % 0 % 995,9 hPa 0,0 l/m 7,2 km/h (2 Bft) 0 min 0 min 10,8 km/h (2 Bft)
10.04.2012 02:45 15,1 C 9,5 C 0,0 UV-I 0,0 C 61 % 94 % 0 % 995,4 hPa 0,0 l/m 6,4 km/h (2 Bft) 0 min 0 min 4,8 km/h (1 Bft)
10.04.2012 02:50 15,1 C 9,6 C 0,0 UV-I 0,0 C 61 % 94 % 0 % 995,4 hPa 0,0 l/m 6,0 km/h (2 Bft) 0 min 0 min 8,4 km/h (2 Bft)
10.04.2012 02:55 15,1 C 9,6 C 0,0 UV-I 0,0 C 61 % 94 % 0 % 995,4 hPa 0,0 l/m 6,8 km/h (2 Bft) 0 min 0 min 14,5 km/h (3 Bft)
10.04.2012 03:00 15,1 C 9,6 C 0,0 UV-I 0,0 C 61 % 94 % 0 % 995,4 hPa 0,0 l/m 6,8 km/h (2 Bft) 0 min 0 min 5,6 km/h (1 Bft)
10.04.2012 03:05 15,1 C 9,6 C 0,0 UV-I 0,0 C 61 % 94 % 0 % 995,6 hPa 0,0 l/m 4,0 km/h (1 Bft) 0 min 0 min 0,0 km/h (0 Bft)
10.04.2012 03:10 15,1 C 9,7 C 0,0 UV-I 0,0 C 61 % 94 % 0 % 995,6 hPa 0,0 l/m 3,6 km/h (1 Bft) 0 min 0 min 6,4 km/h (2 Bft)
10.04.2012 03:15 15,1 C 9,6 C 0,0 UV-I 0,0 C 61 % 94 % 0 % 995,6 hPa 0,0 l/m 4,8 km/h (1 Bft) 0 min 0 min 7,2 km/h (2 Bft)
10.04.2012 03:20 15,1 C 9,7 C 0,0 UV-I 0,0 C 61 % 94 % 0 % 995,6 hPa 0,0 l/m 5,2 km/h (1 Bft) 0 min 2 min 13,3 km/h (3 Bft)
10.04.2012 03:25 15,1 C 9,7 C 0,0 UV-I 0,0 C 61 % 94 % 0 % 995,1 hPa 0,0 l/m 6,4 km/h (2 Bft) 0 min 0 min 19,7 km/h (3 Bft)
10.04.2012 03:30 15,1 C 9,8 C 0,0 UV-I 0,0 C 61 % 94 % 0 % 995,1 hPa 0,1 l/m 6,4 km/h (2 Bft) 0 min 0 min 7,6 km/h (2 Bft)
10.04.2012 03:35 15,1 C 9,7 C 0,0 UV-I 0,0 C 61 % 94 % 0 % 995,1 hPa 0,0 l/m 5,6 km/h (1 Bft) 0 min 0 min 16,5 km/h (3 Bft)
10.04.2012 03:40 15,1 C 9,8 C 0,0 UV-I 0,0 C 61 % 94 % 0 % 995,1 hPa 0,0 l/m 4,4 km/h (1 Bft) 0 min 0 min 0,0 km/h (0 Bft)
10.04.2012 03:45 15,1 C 9,9 C 0,0 UV-I 0,0 C 61 % 94 % 0 % 994,8 hPa 0,0 l/m 5,2 km/h (1 Bft) 0 min 0 min 7,6 km/h (2 Bft)
10.04.2012 03:50 15,1 C 9,8 C 0,0 UV-I 0,0 C 61 % 94 % 0 % 994,8 hPa 0,0 l/m 6,0 km/h (2 Bft) 0 min 0 min 14,9 km/h (3 Bft)
10.04.2012 03:55 15,1 C 9,9 C 0,0 UV-I 0,0 C 60 % 93 % 0 % 994,8 hPa 0,0 l/m 6,4 km/h (2 Bft) 0 min 0 min 12,8 km/h (3 Bft)
10.04.2012 04:00 15,1 C 10,0 C 0,0 UV-I 0,0 C 60 % 93 % 0 % 994,8 hPa 0,0 l/m 7,2 km/h (2 Bft) 0 min 0 min 4,4 km/h (1 Bft)
10.04.2012 04:05 15,1 C 10,0 C 0,0 UV-I 0,0 C 60 % 93 % 0 % 994,6 hPa 0,0 l/m 7,2 km/h (2 Bft) 0 min 0 min 17,7 km/h (3 Bft)
10.04.2012 04:10 15,1 C 10,1 C 0,0 UV-I 0,0 C 60 % 92 % 0 % 994,6 hPa 0,0 l/m 7,6 km/h (2 Bft) 0 min 0 min 10,4 km/h (2 Bft)
10.04.2012 04:15 15,2 C 10,3 C 0,0 UV-I 0,0 C 60 % 92 % 0 % 994,6 hPa 0,0 l/m 8,0 km/h (2 Bft) 0 min 0 min 6,8 km/h (2 Bft)
10.04.2012 04:20 15,1 C 10,3 C 0,0 UV-I 0,0 C 60 % 92 % 0 % 994,6 hPa 0,0 l/m 4,8 km/h (1 Bft) 0 min 0 min 8,8 km/h (2 Bft)
10.04.2012 04:25 15,1 C 10,3 C 0,0 UV-I 0,0 C 60 % 92 % 0 % 994,3 hPa 0,0 l/m 5,6 km/h (1 Bft) 0 min 0 min 21,3 km/h (4 Bft)
10.04.2012 04:30 15,1 C 10,3 C 0,0 UV-I 0,0 C 60 % 91 % 0 % 994,3 hPa 0,0 l/m 7,6 km/h (2 Bft) 0 min 0 min 6,8 km/h (2 Bft)
10.04.2012 04:35 15,2 C 10,4 C 0,0 UV-I 0,0 C 60 % 91 % 0 % 994,3 hPa 0,0 l/m 8,8 km/h (2 Bft) 0 min 0 min 10,4 km/h (2 Bft)
10.04.2012 04:40 15,2 C 10,5 C 0,0 UV-I 0,0 C 60 % 90 % 0 % 994,3 hPa 0,0 l/m 8,4 km/h (2 Bft) 0 min 0 min 12,0 km/h (2 Bft)
10.04.2012 04:45 15,2 C 10,4 C 0,0 UV-I 0,0 C 60 % 90 % 0 % 994,3 hPa 0,0 l/m 8,0 km/h (2 Bft) 0 min 0 min 8,0 km/h (2 Bft)
10.04.2012 04:50 15,2 C 10,5 C 0,0 UV-I 0,0 C 60 % 90 % 0 % 994,3 hPa 0,0 l/m 7,2 km/h (2 Bft) 0 min 0 min 18,9 km/h (3 Bft)
10.04.2012 04:55 15,2 C 10,4 C 0,0 UV-I 0,0 C 60 % 90 % 0 % 994,3 hPa 0,0 l/m 7,6 km/h (2 Bft) 0 min 0 min 8,0 km/h (2 Bft)
10.04.2012 05:00 15,2 C 10,4 C 0,0 UV-I 0,0 C 60 % 90 % 0 % 994,3 hPa 0,0 l/m 8,0 km/h (2 Bft) 0 min 0 min 9,2 km/h (2 Bft)
10.04.2012 05:05 15,2 C 10,4 C 0,0 UV-I 0,0 C 60 % 90 % 0 % 993,8 hPa 0,0 l/m 8,4 km/h (2 Bft) 0 min 0 min 7,6 km/h (2 Bft)
10.04.2012 05:10 15,2 C 10,4 C 0,0 UV-I 0,0 C 59 % 90 % 0 % 993,8 hPa 0,0 l/m 8,4 km/h (2 Bft) 0 min 0 min 12,0 km/h (2 Bft)
10.04.2012 05:15 15,2 C 10,5 C 0,0 UV-I 0,0 C 59 % 89 % 0 % 993,8 hPa 0,0 l/m 7,2 km/h (2 Bft) 0 min 0 min 8,0 km/h (2 Bft)
10.04.2012 05:20 15,2 C 10,4 C 0,0 UV-I 0,0 C 59 % 89 % 0 % 993,8 hPa 0,0 l/m 6,8 km/h (2 Bft) 0 min 0 min 10,4 km/h (2 Bft)
10.04.2012 05:25 15,2 C 10,4 C 0,0 UV-I 0,0 C 59 % 89 % 0 % 993,6 hPa 0,0 l/m 7,2 km/h (2 Bft) 0 min 0 min 14,5 km/h (3 Bft)
10.04.2012 05:30 15,2 C 10,5 C 0,0 UV-I 0,0 C 59 % 89 % 0 % 993,6 hPa 0,0 l/m 6,8 km/h (2 Bft) 0 min 0 min 5,6 km/h (1 Bft)
10.04.2012 05:35 15,1 C 10,5 C 0,0 UV-I 0,0 C 59 % 89 % 0 % 993,6 hPa 0,0 l/m 4,8 km/h (1 Bft) 0 min 0 min 7,2 km/h (2 Bft)
10.04.2012 05:40 15,2 C 10,5 C 0,0 UV-I 0,0 C 59 % 88 % 0 % 993,6 hPa 0,0 l/m 5,6 km/h (1 Bft) 0 min 0 min 10,0 km/h (2 Bft)
10.04.2012 05:45 15,2 C 10,5 C 0,0 UV-I 0,0 C 59 % 88 % 0 % 993,6 hPa 0,0 l/m 6,0 km/h (2 Bft) 0 min 0 min 0,0 km/h (0 Bft)
10.04.2012 05:50 15,1 C 10,5 C 0,0 UV-I 0,0 C 59 % 88 % 0 % 993,6 hPa 0,0 l/m 5,6 km/h (1 Bft) 0 min 0 min 7,2 km/h (2 Bft)
10.04.2012 05:55 15,1 C 10,5 C 0,0 UV-I 0,0 C 59 % 88 % 0 % 993,6 hPa 0,0 l/m 6,0 km/h (2 Bft) 0 min 0 min 12,4 km/h (3 Bft)
10.04.2012 06:00 15,1 C 10,6 C 0,0 UV-I 0,0 C 59 % 88 % 0 % 993,6 hPa 0,0 l/m 7,2 km/h (2 Bft) 0 min 0 min 15,3 km/h (3 Bft)
10.04.2012 06:05 15,1 C 10,7 C 0,0 UV-I 0,0 C 59 % 87 % 0 % 993,4 hPa 0,0 l/m 9,2 km/h (2 Bft) 0 min 0 min 10,4 km/h (2 Bft)
10.04.2012 06:10 15,1 C 10,7 C 0,0 UV-I 0,0 C 59 % 87 % 0 % 993,4 hPa 0,0 l/m 10,0 km/h (2 Bft) 0 min 0 min 11,6 km/h (2 Bft)
10.04.2012 06:15 14,9 C 10,7 C 0,0 UV-I 0,0 C 59 % 87 % 0 % 993,4 hPa 0,0 l/m 10,4 km/h (2 Bft) 0 min 0 min 13,7 km/h (3 Bft)
10.04.2012 06:20 14,9 C 10,7 C 0,0 UV-I 0,0 C 59 % 87 % 0 % 993,4 hPa 0,0 l/m 9,2 km/h (2 Bft) 0 min 0 min 13,3 km/h (3 Bft)
10.04.2012 06:25 14,9 C 10,8 C 0,0 UV-I 0,0 C 59 % 87 % 0 % 993,4 hPa 0,0 l/m 8,0 km/h (2 Bft) 0 min 0 min 15,7 km/h (3 Bft)
10.04.2012 06:30 14,9 C 10,8 C 0,0 UV-I 0,0 C 59 % 86 % 0 % 993,4 hPa 0,0 l/m 9,2 km/h (2 Bft) 0 min 0 min 29,7 km/h (5 Bft)
10.04.2012 06:35 15,0 C 10,9 C 0,0 UV-I 0,0 C 59 % 86 % 0 % 993,4 hPa 0,0 l/m 11,2 km/h (2 Bft) 0 min 0 min 8,8 km/h (2 Bft)
10.04.2012 06:40 15,0 C 10,9 C 0,0 UV-I 0,0 C 59 % 85 % 0 % 993,4 hPa 0,0 l/m 10,8 km/h (2 Bft) 0 min 0 min 11,2 km/h (2 Bft)
10.04.2012 06:45 15,0 C 10,9 C 0,0 UV-I 0,0 C 59 % 85 % 0 % 993,1 hPa 0,0 l/m 8,4 km/h (2 Bft) 0 min 0 min 10,8 km/h (2 Bft)
10.04.2012 06:50 15,0 C 10,9 C 0,0 UV-I 0,0 C 59 % 85 % 0 % 993,1 hPa 0,0 l/m 8,4 km/h (2 Bft) 0 min 0 min 12,4 km/h (3 Bft)
10.04.2012 06:55 15,0 C 10,9 C 0,0 UV-I 0,0 C 59 % 85 % 0 % 993,1 hPa 0,0 l/m 10,0 km/h (2 Bft) 0 min 0 min 7,6 km/h (2 Bft)
10.04.2012 07:00 15,0 C 11,0 C 0,0 UV-I 0,0 C 59 % 85 % 0 % 993,1 hPa 0,0 l/m 10,0 km/h (2 Bft) 0 min 0 min 9,6 km/h (2 Bft)
10.04.2012 07:05 15,0 C 11,0 C 0,0 UV-I 0,0 C 59 % 84 % 0 % 993,6 hPa 0,0 l/m 11,6 km/h (2 Bft) 0 min 0 min 19,3 km/h (3 Bft)
10.04.2012 07:10 14,8 C 10,9 C 0,0 UV-I 0,0 C 58 % 84 % 0 % 993,6 hPa 0,0 l/m 11,6 km/h (2 Bft) 0 min 0 min 8,8 km/h (2 Bft)
10.04.2012 07:15 15,0 C 10,9 C 0,0 UV-I 0,0 C 59 % 84 % 0 % 993,6 hPa 0,0 l/m 8,8 km/h (2 Bft) 0 min 0 min 16,1 km/h (3 Bft)
10.04.2012 07:20 14,8 C 10,8 C 0,0 UV-I 0,0 C 59 % 84 % 0 % 993,6 hPa 0,0 l/m 8,8 km/h (2 Bft) 0 min 0 min 28,5 km/h (4 Bft)
10.04.2012 07:25 14,8 C 10,8 C 0,0 UV-I 0,0 C 59 % 85 % 0 % 993,8 hPa 0,0 l/m 10,0 km/h (2 Bft) 0 min 0 min 6,8 km/h (2 Bft)
10.04.2012 07:30 15,0 C 10,8 C 0,0 UV-I 0,0 C 59 % 85 % 0 % 993,8 hPa 0,0 l/m 9,6 km/h (2 Bft) 0 min 0 min 19,3 km/h (3 Bft)
10.04.2012 07:35 14,8 C 10,8 C 0,0 UV-I 0,0 C 59 % 85 % 0 % 993,8 hPa 0,0 l/m 8,8 km/h (2 Bft) 0 min 0 min 13,7 km/h (3 Bft)
10.04.2012 07:40 15,0 C 10,8 C 0,0 UV-I 0,0 C 59 % 85 % 0 % 993,8 hPa 0,0 l/m 9,6 km/h (2 Bft) 0 min 0 min 6,4 km/h (2 Bft)
10.04.2012 07:45 15,0 C 10,8 C 0,0 UV-I 0,0 C 59 % 85 % 0 % 993,9 hPa 0,0 l/m 10,0 km/h (2 Bft) 0 min 0 min 12,4 km/h (3 Bft)
10.04.2012 07:50 15,0 C 10,8 C 0,0 UV-I 0,0 C 59 % 85 % 0 % 993,9 hPa 0,0 l/m 10,4 km/h (2 Bft) 0 min 0 min 20,1 km/h (4 Bft)
10.04.2012 07:55 14,8 C 10,8 C 0,0 UV-I 0,0 C 59 % 85 % 0 % 993,9 hPa 0,0 l/m 8,4 km/h (2 Bft) 0 min 0 min 8,4 km/h (2 Bft)
10.04.2012 08:00 14,8 C 10,8 C 0,0 UV-I 0,0 C 59 % 85 % 0 % 993,9 hPa 0,0 l/m 6,8 km/h (2 Bft) 0 min 0 min 22,5 km/h (4 Bft)
10.04.2012 08:05 15,0 C 10,8 C 0,0 UV-I 0,0 C 59 % 85 % 0 % 993,6 hPa 0,0 l/m 8,0 km/h (2 Bft) 0 min 0 min 8,8 km/h (2 Bft)
10.04.2012 08:10 15,0 C 10,8 C 0,0 UV-I 0,0 C 59 % 85 % 0 % 993,6 hPa 0,0 l/m 8,8 km/h (2 Bft) 0 min 0 min 7,2 km/h (2 Bft)
10.04.2012 08:15 15,0 C 10,8 C 0,0 UV-I 0,0 C 59 % 85 % 0 % 993,6 hPa 0,0 l/m 8,4 km/h (2 Bft) 0 min 0 min 12,4 km/h (3 Bft)
10.04.2012 08:20 15,0 C 10,8 C 0,0 UV-I 0,0 C 59 % 85 % 0 % 993,6 hPa 0,0 l/m 7,2 km/h (2 Bft) 0 min 0 min 7,2 km/h (2 Bft)
10.04.2012 08:25 15,0 C 10,9 C 0,0 UV-I 0,0 C 59 % 85 % 0 % 993,8 hPa 0,0 l/m 6,4 km/h (2 Bft) 0 min 0 min 13,3 km/h (3 Bft)
10.04.2012 08:30 14,9 C 10,8 C 0,0 UV-I 0,0 C 59 % 85 % 0 % 993,8 hPa 0,0 l/m 7,6 km/h (2 Bft) 0 min 0 min 7,6 km/h (2 Bft)
10.04.2012 08:35 14,9 C 10,8 C 0,0 UV-I 0,0 C 59 % 85 % 0 % 993,8 hPa 0,0 l/m 8,4 km/h (2 Bft) 0 min 0 min 11,6 km/h (2 Bft)
10.04.2012 08:40 14,9 C 10,9 C 0,0 UV-I 0,0 C 59 % 85 % 0 % 993,8 hPa 0,0 l/m 7,2 km/h (2 Bft) 0 min 0 min 9,6 km/h (2 Bft)
10.04.2012 08:45 15,1 C 10,9 C 0,0 UV-I 0,1 C 59 % 85 % 3 % 993,6 hPa 0,0 l/m 7,6 km/h (2 Bft) 0 min 0 min 14,5 km/h (3 Bft)
10.04.2012 08:50 15,1 C 10,9 C 0,0 UV-I 0,1 C 59 % 85 % 3 % 993,6 hPa 0,0 l/m 7,6 km/h (2 Bft) 0 min 0 min 6,0 km/h (2 Bft)
10.04.2012 08:55 15,1 C 11,1 C 0,0 UV-I 0,0 C 59 % 85 % 0 % 993,6 hPa 0,0 l/m 9,6 km/h (2 Bft) 0 min 0 min 16,1 km/h (3 Bft)
10.04.2012 09:00 15,1 C 11,1 C 0,0 UV-I 0,0 C 59 % 85 % 0 % 993,6 hPa 0,0 l/m 8,4 km/h (2 Bft) 0 min 0 min 16,5 km/h (3 Bft)
10.04.2012 09:05 15,1 C 11,1 C 0,0 UV-I 0,0 C 59 % 85 % 0 % 993,4 hPa 0,0 l/m 6,8 km/h (2 Bft) 0 min 0 min 10,4 km/h (2 Bft)
10.04.2012 09:10 15,1 C 11,1 C 0,0 UV-I 0,0 C 59 % 85 % 0 % 993,4 hPa 0,0 l/m 7,2 km/h (2 Bft) 0 min 0 min 11,6 km/h (2 Bft)
10.04.2012 09:15 15,1 C 11,1 C 0,0 UV-I 0,0 C 59 % 84 % 0 % 993,4 hPa 0,0 l/m 7,6 km/h (2 Bft) 0 min 0 min 4,4 km/h (1 Bft)
10.04.2012 09:20 15,1 C 11,1 C 0,0 UV-I 0,0 C 59 % 84 % 0 % 993,4 hPa 0,0 l/m 7,2 km/h (2 Bft) 0 min 0 min 14,5 km/h (3 Bft)
10.04.2012 09:25 15,1 C 11,1 C 0,0 UV-I 0,0 C 59 % 84 % 0 % 993,5 hPa 0,0 l/m 7,6 km/h (2 Bft) 0 min 0 min 14,1 km/h (3 Bft)
10.04.2012 09:30 15,2 C 11,1 C 0,0 UV-I 0,0 C 59 % 84 % 0 % 993,5 hPa 0,0 l/m 8,8 km/h (2 Bft) 0 min 0 min 10,4 km/h (2 Bft)
10.04.2012 09:35 15,2 C 11,2 C 0,0 UV-I 0,0 C 59 % 84 % 0 % 993,5 hPa 0,0 l/m 6,4 km/h (2 Bft) 0 min 0 min 8,0 km/h (2 Bft)
10.04.2012 09:40 15,2 C 11,2 C 0,0 UV-I 0,2 C 59 % 84 % 6 % 993,5 hPa 0,0 l/m 7,2 km/h (2 Bft) 0 min 0 min 15,7 km/h (3 Bft)
10.04.2012 09:45 15,2 C 11,3 C 0,0 UV-I 0,1 C 59 % 84 % 3 % 993,8 hPa 0,0 l/m 10,8 km/h (2 Bft) 0 min 0 min 20,5 km/h (4 Bft)
10.04.2012 09:50 15,2 C 11,2 C 0,0 UV-I 0,2 C 59 % 83 % 6 % 993,8 hPa 0,0 l/m 10,8 km/h (2 Bft) 0 min 0 min 11,2 km/h (2 Bft)
10.04.2012 09:55 15,2 C 11,3 C 0,0 UV-I 0,1 C 59 % 84 % 3 % 993,8 hPa 0,0 l/m 9,6 km/h (2 Bft) 0 min 0 min 7,2 km/h (2 Bft)
10.04.2012 10:00 15,2 C 11,3 C 0,0 UV-I 0,1 C 59 % 84 % 3 % 993,8 hPa 0,0 l/m 9,6 km/h (2 Bft) 0 min 0 min 8,8 km/h (2 Bft)
10.04.2012 10:05 15,2 C 11,3 C 0,0 UV-I 0,1 C 59 % 84 % 3 % 993,8 hPa 0,0 l/m 7,6 km/h (2 Bft) 0 min 0 min 6,8 km/h (2 Bft)
10.04.2012 10:10 15,2 C 11,2 C 0,0 UV-I 0,3 C 59 % 84 % 9 % 993,8 hPa 0,0 l/m 6,0 km/h (2 Bft) 0 min 0 min 11,2 km/h (2 Bft)
10.04.2012 10:15 15,1 C 11,3 C 0,0 UV-I 0,5 C 59 % 84 % 14 % 993,8 hPa 0,0 l/m 8,4 km/h (2 Bft) 0 min 0 min 8,4 km/h (2 Bft)
10.04.2012 10:20 15,1 C 11,5 C 0,1 UV-I 1,0 C 59 % 84 % 29 % 993,8 hPa 0,0 l/m 9,6 km/h (2 Bft) 0 min 0 min 10,0 km/h (2 Bft)
10.04.2012 10:25 15,1 C 11,6 C 0,6 UV-I 1,5 C 59 % 84 % 43 % 993,9 hPa 0,0 l/m 8,8 km/h (2 Bft) 0 min 0 min 12,4 km/h (3 Bft)
10.04.2012 10:30 15,1 C 11,6 C 0,4 UV-I 1,6 C 59 % 84 % 46 % 993,9 hPa 0,0 l/m 10,0 km/h (2 Bft) 0 min 0 min 7,6 km/h (2 Bft)
10.04.2012 10:35 15,2 C 11,6 C 0,4 UV-I 1,8 C 59 % 84 % 51 % 993,9 hPa 0,0 l/m 12,4 km/h (3 Bft) 0 min 0 min 28,1 km/h (4 Bft)
10.04.2012 10:40 15,2 C 11,7 C 0,4 UV-I 1,8 C 59 % 84 % 51 % 993,9 hPa 0,0 l/m 11,6 km/h (2 Bft) 0 min 0 min 10,0 km/h (2 Bft)
10.04.2012 10:45 15,2 C 11,7 C 0,4 UV-I 2,0 C 59 % 83 % 57 % 994,1 hPa 0,0 l/m 10,4 km/h (2 Bft) 0 min 0 min 4,8 km/h (1 Bft)
10.04.2012 10:50 15,4 C 11,9 C 0,2 UV-I 1,9 C 59 % 83 % 54 % 994,1 hPa 0,0 l/m 7,2 km/h (2 Bft) 0 min 0 min 13,3 km/h (3 Bft)
10.04.2012 10:55 15,4 C 11,9 C 0,2 UV-I 2,0 C 59 % 83 % 57 % 994,1 hPa 0,0 l/m 7,6 km/h (2 Bft) 0 min 0 min 10,8 km/h (2 Bft)
10.04.2012 11:00 15,3 C 12,0 C 0,1 UV-I 1,8 C 59 % 83 % 51 % 994,1 hPa 0,0 l/m 7,6 km/h (2 Bft) 0 min 0 min 0,0 km/h (0 Bft)
10.04.2012 11:05 15,5 C 12,1 C 0,0 UV-I 1,5 C 59 % 82 % 43 % 994,4 hPa 0,0 l/m 8,4 km/h (2 Bft) 0 min 0 min 10,8 km/h (2 Bft)
10.04.2012 11:10 15,4 C 12,0 C 0,0 UV-I 1,3 C 59 % 81 % 37 % 994,4 hPa 0,0 l/m 8,8 km/h (2 Bft) 0 min 0 min 6,4 km/h (2 Bft)
10.04.2012 11:15 15,4 C 12,1 C 0,0 UV-I 1,0 C 59 % 81 % 29 % 994,4 hPa 0,0 l/m 7,6 km/h (2 Bft) 0 min 0 min 9,6 km/h (2 Bft)
10.04.2012 11:20 15,6 C 12,0 C 0,0 UV-I 0,8 C 59 % 81 % 23 % 994,4 hPa 0,0 l/m 8,0 km/h (2 Bft) 0 min 0 min 5,6 km/h (1 Bft)
10.04.2012 11:25 15,6 C 11,9 C 0,0 UV-I 0,4 C 58 % 81 % 11 % 994,1 hPa 0,0 l/m 10,0 km/h (2 Bft) 0 min 0 min 18,1 km/h (3 Bft)
10.04.2012 11:30 15,6 C 11,9 C 0,0 UV-I 0,0 C 58 % 82 % 0 % 994,1 hPa 0,0 l/m 10,4 km/h (2 Bft) 0 min 0 min 20,1 km/h (4 Bft)
10.04.2012 11:35 15,6 C 11,6 C 0,0 UV-I 0,0 C 59 % 82 % 0 % 994,1 hPa 0,0 l/m 12,0 km/h (2 Bft) 0 min 2 min 18,9 km/h (3 Bft)
10.04.2012 11:40 15,4 C 11,6 C 0,1 UV-I 0,0 C 59 % 83 % 0 % 994,1 hPa 0,0 l/m 10,8 km/h (2 Bft) 0 min 0 min 8,0 km/h (2 Bft)
10.04.2012 11:45 15,6 C 11,6 C 0,8 UV-I 0,7 C 59 % 84 % 20 % 994,4 hPa 0,0 l/m 10,8 km/h (2 Bft) 0 min 0 min 10,4 km/h (2 Bft)
10.04.2012 11:50 15,6 C 11,7 C 1,0 UV-I 1,4 C 60 % 84 % 40 % 994,4 hPa 0,0 l/m 10,0 km/h (2 Bft) 0 min 0 min 4,8 km/h (1 Bft)
10.04.2012 11:55 15,6 C 11,8 C 0,3 UV-I 1,5 C 60 % 84 % 43 % 994,4 hPa 0,0 l/m 8,0 km/h (2 Bft) 0 min 0 min 15,7 km/h (3 Bft)
10.04.2012 12:00 15,6 C 11,7 C 0,0 UV-I 1,4 C 60 % 84 % 40 % 994,4 hPa 0,0 l/m 6,8 km/h (2 Bft) 0 min 0 min 7,6 km/h (2 Bft)
10.04.2012 12:05 15,7 C 11,7 C 0,0 UV-I 1,0 C 60 % 84 % 29 % 994,2 hPa 0,0 l/m 7,6 km/h (2 Bft) 0 min 0 min 6,8 km/h (2 Bft)
10.04.2012 12:10 15,7 C 11,7 C 0,0 UV-I 0,8 C 60 % 84 % 23 % 994,2 hPa 0,0 l/m 7,2 km/h (2 Bft) 0 min 2 min 6,4 km/h (2 Bft)
10.04.2012 12:15 15,7 C 11,5 C 0,0 UV-I 0,4 C 60 % 85 % 11 % 994,2 hPa 0,0 l/m 7,2 km/h (2 Bft) 0 min 0 min 8,4 km/h (2 Bft)
10.04.2012 12:20 15,7 C 11,5 C 0,0 UV-I 0,2 C 60 % 86 % 6 % 994,2 hPa 0,0 l/m 6,0 km/h (2 Bft) 0 min 0 min 7,6 km/h (2 Bft)
10.04.2012 12:25 15,6 C 11,5 C 0,0 UV-I 0,0 C 60 % 86 % 0 % 994,8 hPa 0,0 l/m 6,0 km/h (2 Bft) 0 min 2 min 7,6 km/h (2 Bft)
10.04.2012 12:30 15,6 C 11,3 C 0,0 UV-I 0,0 C 60 % 87 % 0 % 994,8 hPa 0,0 l/m 6,4 km/h (2 Bft) 0 min 2 min 4,0 km/h (1 Bft)
10.04.2012 12:35 15,8 C 11,2 C 0,0 UV-I 0,0 C 60 % 87 % 0 % 994,8 hPa 0,0 l/m 4,4 km/h (1 Bft) 0 min 2 min 0,0 km/h (0 Bft)
10.04.2012 12:40 15,8 C 11,3 C 0,0 UV-I 0,0 C 61 % 88 % 0 % 994,8 hPa 0,0 l/m 4,4 km/h (1 Bft) 0 min 2 min 10,0 km/h (2 Bft)
10.04.2012 12:45 15,6 C 11,1 C 0,0 UV-I 0,0 C 60 % 87 % 0 % 994,8 hPa 0,1 l/m 6,8 km/h (2 Bft) 0 min 0 min 7,6 km/h (2 Bft)
10.04.2012 12:50 15,6 C 11,1 C 0,0 UV-I 0,0 C 60 % 88 % 0 % 994,8 hPa 0,0 l/m 7,6 km/h (2 Bft) 0 min 0 min 13,3 km/h (3 Bft)
10.04.2012 12:55 15,6 C 11,1 C 0,0 UV-I 0,0 C 60 % 88 % 0 % 994,8 hPa 0,0 l/m 6,0 km/h (2 Bft) 0 min 0 min 4,4 km/h (1 Bft)
10.04.2012 13:00 15,6 C 11,1 C 0,0 UV-I 0,0 C 60 % 88 % 0 % 994,8 hPa 0,0 l/m 4,0 km/h (1 Bft) 0 min 0 min 0,0 km/h (0 Bft)
10.04.2012 13:05 15,6 C 11,2 C 0,0 UV-I 0,4 C 60 % 88 % 11 % 994,6 hPa 0,0 l/m 2,8 km/h (1 Bft) 0 min 0 min 6,8 km/h (2 Bft)
10.04.2012 13:10 15,8 C 11,3 C 0,0 UV-I 0,4 C 61 % 88 % 11 % 994,6 hPa 0,0 l/m 4,0 km/h (1 Bft) 0 min 0 min 7,6 km/h (2 Bft)
10.04.2012 13:15 15,8 C 11,5 C 0,0 UV-I 0,0 C 61 % 88 % 0 % 994,6 hPa 0,0 l/m 5,2 km/h (1 Bft) 0 min 2 min 9,6 km/h (2 Bft)
10.04.2012 13:20 15,8 C 11,5 C 0,0 UV-I 0,0 C 60 % 87 % 0 % 994,6 hPa 0,0 l/m 6,0 km/h (2 Bft) 0 min 0 min 5,6 km/h (1 Bft)
10.04.2012 13:25 15,8 C 11,5 C 0,0 UV-I 0,0 C 60 % 87 % 0 % 994,2 hPa 0,0 l/m 5,6 km/h (1 Bft) 0 min 2 min 16,9 km/h (3 Bft)
10.04.2012 13:30 15,8 C 11,5 C 0,0 UV-I 0,0 C 60 % 87 % 0 % 994,2 hPa 0,0 l/m 5,6 km/h (1 Bft) 0 min 2 min 5,6 km/h (1 Bft)
10.04.2012 13:35 15,8 C 11,5 C 0,0 UV-I 0,0 C 60 % 86 % 0 % 994,2 hPa 0,0 l/m 6,8 km/h (2 Bft) 0 min 0 min 22,5 km/h (4 Bft)
10.04.2012 13:40 15,8 C 11,6 C 0,0 UV-I 0,0 C 60 % 86 % 0 % 994,2 hPa 0,0 l/m 7,2 km/h (2 Bft) 0 min 0 min 14,5 km/h (3 Bft)
10.04.2012 13:45 15,8 C 11,7 C 0,0 UV-I 0,0 C 60 % 85 % 0 % 994,4 hPa 0,0 l/m 7,2 km/h (2 Bft) 0 min 0 min 11,6 km/h (2 Bft)
10.04.2012 13:50 15,8 C 11,8 C 0,0 UV-I 0,2 C 60 % 84 % 6 % 994,4 hPa 0,0 l/m 7,2 km/h (2 Bft) 0 min 0 min 11,2 km/h (2 Bft)
10.04.2012 13:55 15,8 C 11,9 C 0,0 UV-I 0,4 C 59 % 84 % 11 % 994,4 hPa 0,0 l/m 9,2 km/h (2 Bft) 0 min 0 min 18,1 km/h (3 Bft)
10.04.2012 14:00 15,8 C 12,0 C 0,1 UV-I 0,7 C 59 % 84 % 20 % 994,4 hPa 0,0 l/m 9,6 km/h (2 Bft) 0 min 0 min 14,5 km/h (3 Bft)
10.04.2012 14:05 15,8 C 12,3 C 0,3 UV-I 0,8 C 59 % 83 % 23 % 994,4 hPa 0,0 l/m 9,2 km/h (2 Bft) 0 min 0 min 10,0 km/h (2 Bft)
10.04.2012 14:10 15,8 C 12,2 C 0,1 UV-I 1,0 C 59 % 83 % 29 % 994,4 hPa 0,0 l/m 7,2 km/h (2 Bft) 0 min 0 min 10,4 km/h (2 Bft)
10.04.2012 14:15 15,8 C 12,2 C 0,0 UV-I 0,6 C 59 % 82 % 17 % 994,4 hPa 0,0 l/m 7,2 km/h (2 Bft) 0 min 0 min 7,6 km/h (2 Bft)
10.04.2012 14:20 15,8 C 12,3 C 0,0 UV-I 0,5 C 59 % 82 % 14 % 994,4 hPa 0,0 l/m 7,2 km/h (2 Bft) 0 min 0 min 12,0 km/h (2 Bft)
10.04.2012 14:25 15,8 C 12,3 C 0,0 UV-I 0,5 C 59 % 81 % 14 % 994,4 hPa 0,0 l/m 7,2 km/h (2 Bft) 0 min 0 min 9,6 km/h (2 Bft)
10.04.2012 14:30 15,8 C 12,3 C 0,0 UV-I 0,5 C 59 % 81 % 14 % 994,4 hPa 0,0 l/m 8,0 km/h (2 Bft) 0 min 2 min 4,8 km/h (1 Bft)
10.04.2012 14:35 15,8 C 12,1 C 0,0 UV-I 0,0 C 59 % 82 % 0 % 994,4 hPa 0,0 l/m 7,6 km/h (2 Bft) 0 min 2 min 25,7 km/h (4 Bft)
10.04.2012 14:40 15,8 C 11,8 C 0,0 UV-I 0,0 C 59 % 83 % 0 % 994,4 hPa 0,1 l/m 8,0 km/h (2 Bft) 0 min 2 min 6,0 km/h (2 Bft)
10.04.2012 14:45 15,8 C 11,6 C 0,0 UV-I 0,0 C 59 % 84 % 0 % 994,6 hPa 0,0 l/m 8,0 km/h (2 Bft) 0 min 2 min 9,6 km/h (2 Bft)
10.04.2012 14:50 15,8 C 11,6 C 0,2 UV-I 0,0 C 60 % 85 % 0 % 994,6 hPa 0,0 l/m 6,0 km/h (2 Bft) 0 min 0 min 6,4 km/h (2 Bft)
10.04.2012 14:55 15,8 C 11,5 C 0,1 UV-I 0,0 C 60 % 86 % 0 % 994,6 hPa 0,1 l/m 6,0 km/h (2 Bft) 0 min 2 min 14,9 km/h (3 Bft)
10.04.2012 15:00 15,9 C 11,5 C 0,0 UV-I 0,0 C 60 % 86 % 0 % 994,6 hPa 0,0 l/m 5,6 km/h (1 Bft) 0 min 0 min 14,5 km/h (3 Bft)
10.04.2012 15:05 15,9 C 11,5 C 0,0 UV-I 0,0 C 60 % 86 % 0 % 994,3 hPa 0,0 l/m 5,6 km/h (1 Bft) 0 min 2 min 5,2 km/h (1 Bft)
10.04.2012 15:10 15,9 C 11,5 C 0,0 UV-I 0,0 C 60 % 87 % 0 % 994,3 hPa 0,0 l/m 4,4 km/h (1 Bft) 0 min 0 min 0,0 km/h (0 Bft)
10.04.2012 15:15 15,9 C 11,4 C 0,0 UV-I 0,0 C 60 % 87 % 0 % 994,3 hPa 0,0 l/m 4,8 km/h (1 Bft) 0 min 0 min 7,2 km/h (2 Bft)
10.04.2012 15:20 15,9 C 11,5 C 0,0 UV-I 0,0 C 60 % 87 % 0 % 994,3 hPa 0,0 l/m 4,8 km/h (1 Bft) 0 min 0 min 6,4 km/h (2 Bft)
10.04.2012 15:25 15,9 C 11,6 C 0,0 UV-I 0,0 C 60 % 86 % 0 % 994,5 hPa 0,0 l/m 6,0 km/h (2 Bft) 0 min 0 min 8,4 km/h (2 Bft)
10.04.2012 15:30 15,9 C 11,7 C 0,0 UV-I 0,0 C 60 % 86 % 0 % 994,5 hPa 0,0 l/m 5,2 km/h (1 Bft) 0 min 0 min 6,0 km/h (2 Bft)
10.04.2012 15:35 15,9 C 11,8 C 0,1 UV-I 0,3 C 60 % 86 % 9 % 994,5 hPa 0,0 l/m 6,0 km/h (2 Bft) 0 min 0 min 10,8 km/h (2 Bft)
10.04.2012 15:40 15,9 C 11,9 C 0,1 UV-I 0,2 C 60 % 86 % 6 % 994,5 hPa 0,0 l/m 7,2 km/h (2 Bft) 0 min 0 min 14,9 km/h (3 Bft)
10.04.2012 15:45 15,9 C 11,9 C 0,4 UV-I 0,8 C 60 % 86 % 23 % 994,2 hPa 0,0 l/m 6,4 km/h (2 Bft) 0 min 0 min 0,0 km/h (0 Bft)
10.04.2012 15:50 16,0 C 12,1 C 0,9 UV-I 1,6 C 61 % 86 % 46 % 994,2 hPa 0,0 l/m 5,2 km/h (1 Bft) 0 min 0 min 9,6 km/h (2 Bft)
10.04.2012 15:55 15,9 C 12,6 C 1,3 UV-I 2,6 C 61 % 86 % 74 % 994,2 hPa 0,0 l/m 4,4 km/h (1 Bft) 0 min 0 min 20,9 km/h (4 Bft)
10.04.2012 16:00 16,1 C 12,9 C 1,3 UV-I 3,0 C 61 % 84 % 86 % 994,2 hPa 0,0 l/m 7,2 km/h (2 Bft) 2 min 0 min 16,9 km/h (3 Bft)
10.04.2012 16:05 16,3 C 13,2 C 1,4 UV-I 3,4 C 61 % 82 % 97 % 994,2 hPa 0,0 l/m 9,2 km/h (2 Bft) 2 min 0 min 12,4 km/h (3 Bft)
10.04.2012 16:10 16,4 C 13,3 C 0,6 UV-I 2,8 C 60 % 82 % 80 % 994,2 hPa 0,0 l/m 7,2 km/h (2 Bft) 0 min 0 min 8,0 km/h (2 Bft)
10.04.2012 16:15 16,4 C 13,2 C 0,4 UV-I 2,3 C 59 % 80 % 66 % 994,2 hPa 0,0 l/m 7,2 km/h (2 Bft) 0 min 0 min 16,1 km/h (3 Bft)
10.04.2012 16:20 16,4 C 13,3 C 0,0 UV-I 1,7 C 59 % 80 % 49 % 994,2 hPa 0,0 l/m 6,8 km/h (2 Bft) 0 min 0 min 7,2 km/h (2 Bft)
10.04.2012 16:25 16,4 C 13,2 C 0,0 UV-I 1,1 C 58 % 80 % 31 % 994,1 hPa 0,0 l/m 6,8 km/h (2 Bft) 0 min 0 min 5,6 km/h (1 Bft)
10.04.2012 16:30 16,4 C 13,2 C 0,0 UV-I 0,8 C 58 % 79 % 23 % 994,1 hPa 0,0 l/m 7,6 km/h (2 Bft) 0 min 0 min 11,2 km/h (2 Bft)
10.04.2012 16:35 16,5 C 13,2 C 0,0 UV-I 0,7 C 57 % 78 % 20 % 994,1 hPa 0,0 l/m 8,0 km/h (2 Bft) 0 min 0 min 13,7 km/h (3 Bft)
10.04.2012 16:40 16,5 C 13,3 C 0,0 UV-I 0,6 C 57 % 78 % 17 % 994,1 hPa 0,0 l/m 7,6 km/h (2 Bft) 0 min 0 min 12,4 km/h (3 Bft)
10.04.2012 16:45 16,5 C 13,2 C 0,0 UV-I 0,6 C 57 % 78 % 17 % 993,8 hPa 0,0 l/m 9,2 km/h (2 Bft) 0 min 0 min 8,4 km/h (2 Bft)
10.04.2012 16:50 16,5 C 13,2 C 0,0 UV-I 0,6 C 57 % 78 % 17 % 993,8 hPa 0,0 l/m 8,8 km/h (2 Bft) 0 min 0 min 9,2 km/h (2 Bft)
10.04.2012 16:55 16,5 C 13,1 C 0,0 UV-I 0,9 C 57 % 79 % 26 % 993,8 hPa 0,0 l/m 4,0 km/h (1 Bft) 0 min 0 min 7,6 km/h (2 Bft)
10.04.2012 17:00 16,5 C 13,2 C 0,3 UV-I 1,0 C 58 % 79 % 29 % 993,8 hPa 0,0 l/m 3,6 km/h (1 Bft) 0 min 0 min 0,0 km/h (0 Bft)
10.04.2012 17:05 16,5 C 13,5 C 0,5 UV-I 1,4 C 58 % 79 % 40 % 993,4 hPa 0,0 l/m 3,2 km/h (1 Bft) 0 min 0 min 0,0 km/h (0 Bft)
10.04.2012 17:10 16,6 C 13,4 C 0,1 UV-I 1,6 C 57 % 78 % 46 % 993,4 hPa 0,0 l/m 1,6 km/h (1 Bft) 0 min 0 min 5,2 km/h (1 Bft)
10.04.2012 17:15 16,6 C 13,4 C 0,0 UV-I 1,3 C 57 % 77 % 37 % 993,4 hPa 0,0 l/m 2,4 km/h (1 Bft) 0 min 0 min 4,4 km/h (1 Bft)
10.04.2012 17:20 16,6 C 13,5 C 0,0 UV-I 1,0 C 57 % 77 % 29 % 993,4 hPa 0,0 l/m 3,2 km/h (1 Bft) 0 min 0 min 6,4 km/h (2 Bft)
10.04.2012 17:25 16,6 C 13,4 C 0,0 UV-I 0,8 C 57 % 77 % 23 % 993,2 hPa 0,0 l/m 4,0 km/h (1 Bft) 0 min 0 min 0,0 km/h (0 Bft)
10.04.2012 17:30 16,6 C 13,3 C 0,0 UV-I 0,7 C 57 % 77 % 20 % 993,2 hPa 0,0 l/m 3,2 km/h (1 Bft) 0 min 0 min 0,0 km/h (0 Bft)
10.04.2012 17:35 16,6 C 13,3 C 0,0 UV-I 0,9 C 57 % 77 % 26 % 993,2 hPa 0,0 l/m 0,8 km/h (0 Bft) 0 min 0 min 4,0 km/h (1 Bft)
10.04.2012 17:40 16,6 C 13,5 C 0,0 UV-I 0,9 C 57 % 77 % 26 % 993,2 hPa 0,0 l/m 0,8 km/h (0 Bft) 0 min 0 min 14,5 km/h (3 Bft)
10.04.2012 17:45 16,6 C 13,5 C 0,0 UV-I 1,0 C 57 % 77 % 29 % 992,7 hPa 0,0 l/m 3,2 km/h (1 Bft) 0 min 0 min 8,0 km/h (2 Bft)
10.04.2012 17:50 16,6 C 13,6 C 0,0 UV-I 1,1 C 57 % 77 % 31 % 992,7 hPa 0,0 l/m 4,0 km/h (1 Bft) 0 min 0 min 5,2 km/h (1 Bft)
10.04.2012 17:55 16,6 C 13,6 C 0,0 UV-I 1,2 C 57 % 77 % 34 % 992,7 hPa 0,0 l/m 2,8 km/h (1 Bft) 0 min 0 min 0,0 km/h (0 Bft)
10.04.2012 18:00 16,6 C 13,6 C 0,0 UV-I 1,2 C 57 % 77 % 34 % 992,7 hPa 0,0 l/m 2,0 km/h (1 Bft) 0 min 0 min 4,8 km/h (1 Bft)
10.04.2012 18:05 16,7 C 13,7 C 0,0 UV-I 1,0 C 57 % 77 % 29 % 992,8 hPa 0,0 l/m 1,6 km/h (1 Bft) 0 min 0 min 0,0 km/h (0 Bft)
10.04.2012 18:10 16,6 C 13,9 C 0,0 UV-I 0,7 C 57 % 77 % 20 % 992,8 hPa 0,0 l/m 2,8 km/h (1 Bft) 0 min 0 min 12,0 km/h (2 Bft)
10.04.2012 18:15 16,6 C 13,7 C 0,0 UV-I 0,5 C 57 % 77 % 14 % 992,8 hPa 0,0 l/m 4,4 km/h (1 Bft) 0 min 0 min 4,0 km/h (1 Bft)
10.04.2012 18:20 16,6 C 13,7 C 0,0 UV-I 0,2 C 57 % 77 % 6 % 992,8 hPa 0,0 l/m 3,2 km/h (1 Bft) 0 min 0 min 5,2 km/h (1 Bft)
10.04.2012 18:25 16,6 C 13,6 C 0,0 UV-I 0,0 C 57 % 77 % 0 % 992,6 hPa 0,0 l/m 1,2 km/h (1 Bft) 0 min 0 min 4,0 km/h (1 Bft)
10.04.2012 18:30 16,6 C 13,6 C 0,0 UV-I 0,0 C 57 % 77 % 0 % 992,6 hPa 0,0 l/m 2,0 km/h (1 Bft) 0 min 0 min 5,2 km/h (1 Bft)
10.04.2012 18:35 16,6 C 13,5 C 0,0 UV-I 0,0 C 57 % 77 % 0 % 992,6 hPa 0,0 l/m 1,6 km/h (1 Bft) 0 min 0 min 0,0 km/h (0 Bft)
10.04.2012 18:40 16,6 C 13,5 C 0,0 UV-I 0,0 C 57 % 77 % 0 % 992,6 hPa 0,0 l/m 0,8 km/h (0 Bft) 0 min 0 min 0,0 km/h (0 Bft)
10.04.2012 18:45 16,5 C 13,5 C 0,0 UV-I 0,0 C 57 % 77 % 0 % 992,3 hPa 0,0 l/m 0,4 km/h (0 Bft) 0 min 0 min 4,8 km/h (1 Bft)
10.04.2012 18:50 16,5 C 13,3 C 0,0 UV-I 0,0 C 57 % 78 % 0 % 992,3 hPa 0,0 l/m 0,8 km/h (0 Bft) 0 min 0 min 0,0 km/h (0 Bft)
10.04.2012 18:55 16,5 C 13,2 C 0,0 UV-I 0,0 C 57 % 78 % 0 % 992,3 hPa 0,0 l/m 2,8 km/h (1 Bft) 0 min 0 min 4,4 km/h (1 Bft)
10.04.2012 19:00 16,5 C 13,3 C 0,0 UV-I 0,0 C 58 % 78 % 0 % 992,3 hPa 0,0 l/m 3,6 km/h (1 Bft) 0 min 0 min 0,0 km/h (0 Bft)
10.04.2012 19:05 16,5 C 13,5 C 0,0 UV-I 0,0 C 58 % 77 % 0 % 992,1 hPa 0,0 l/m 5,6 km/h (1 Bft) 0 min 0 min 8,0 km/h (2 Bft)
10.04.2012 19:10 16,4 C 13,6 C 0,0 UV-I 0,0 C 58 % 76 % 0 % 992,1 hPa 0,0 l/m 6,0 km/h (2 Bft) 0 min 0 min 6,8 km/h (2 Bft)
10.04.2012 19:15 16,5 C 13,8 C 0,0 UV-I 0,0 C 57 % 75 % 0 % 992,1 hPa 0,0 l/m 8,0 km/h (2 Bft) 0 min 0 min 19,7 km/h (3 Bft)
10.04.2012 19:20 16,4 C 13,9 C 0,0 UV-I 0,0 C 57 % 73 % 0 % 992,1 hPa 0,0 l/m 11,2 km/h (2 Bft) 0 min 0 min 17,3 km/h (3 Bft)
10.04.2012 19:25 16,5 C 13,9 C 0,0 UV-I 0,0 C 57 % 73 % 0 % 992,2 hPa 0,0 l/m 13,7 km/h (3 Bft) 0 min 0 min 16,1 km/h (3 Bft)
10.04.2012 19:30 16,4 C 13,9 C 0,0 UV-I 0,0 C 56 % 73 % 0 % 992,2 hPa 0,0 l/m 12,8 km/h (3 Bft) 0 min 2 min 13,3 km/h (3 Bft)
10.04.2012 19:35 16,5 C 13,9 C 0,0 UV-I 0,0 C 56 % 74 % 0 % 992,2 hPa 0,0 l/m 10,8 km/h (2 Bft) 0 min 2 min 10,8 km/h (2 Bft)
10.04.2012 19:40 16,4 C 13,6 C 0,0 UV-I 0,0 C 57 % 76 % 0 % 992,2 hPa 0,0 l/m 10,0 km/h (2 Bft) 0 min 2 min 20,5 km/h (4 Bft)
10.04.2012 19:45 16,4 C 12,9 C 0,0 UV-I 0,0 C 58 % 79 % 0 % 992,8 hPa 0,1 l/m 9,2 km/h (2 Bft) 0 min 2 min 8,4 km/h (2 Bft)
10.04.2012 19:50 16,4 C 12,3 C 0,0 UV-I 0,0 C 59 % 81 % 0 % 992,8 hPa 0,1 l/m 9,6 km/h (2 Bft) 0 min 2 min 19,7 km/h (3 Bft)
10.04.2012 19:55 16,4 C 11,5 C 0,0 UV-I 0,0 C 59 % 82 % 0 % 992,8 hPa 0,0 l/m 9,6 km/h (2 Bft) 0 min 2 min 5,6 km/h (1 Bft)
10.04.2012 20:00 16,4 C 11,0 C 0,0 UV-I 0,0 C 59 % 83 % 0 % 992,8 hPa 0,1 l/m 9,2 km/h (2 Bft) 0 min 2 min 7,6 km/h (2 Bft)
10.04.2012 20:05 16,2 C 10,7 C 0,0 UV-I 0,0 C 59 % 84 % 0 % 993,6 hPa 0,1 l/m 4,4 km/h (1 Bft) 0 min 2 min 5,2 km/h (1 Bft)
10.04.2012 20:10 16,2 C 10,4 C 0,0 UV-I 0,0 C 59 % 85 % 0 % 993,6 hPa 0,1 l/m 3,6 km/h (1 Bft) 0 min 2 min 0,0 km/h (0 Bft)
10.04.2012 20:15 16,2 C 10,0 C 0,0 UV-I 0,0 C 59 % 86 % 0 % 993,6 hPa 0,0 l/m 4,4 km/h (1 Bft) 0 min 0 min 6,0 km/h (2 Bft)
10.04.2012 20:20 16,3 C 9,8 C 0,0 UV-I 0,0 C 59 % 86 % 0 % 993,6 hPa 0,0 l/m 2,8 km/h (1 Bft) 0 min 0 min 12,0 km/h (2 Bft)
10.04.2012 20:25 16,3 C 9,7 C 0,0 UV-I 0,0 C 59 % 87 % 0 % 993,9 hPa 0,0 l/m 2,8 km/h (1 Bft) 0 min 0 min 9,2 km/h (2 Bft)
10.04.2012 20:30 16,2 C 9,5 C 0,0 UV-I 0,0 C 59 % 88 % 0 % 993,9 hPa 0,1 l/m 2,4 km/h (1 Bft) 0 min 0 min 5,6 km/h (1 Bft)
10.04.2012 20:35 16,2 C 9,5 C 0,0 UV-I 0,0 C 59 % 89 % 0 % 993,9 hPa 0,0 l/m 2,8 km/h (1 Bft) 0 min 0 min 0,0 km/h (0 Bft)
10.04.2012 20:40 16,3 C 9,3 C 0,0 UV-I 0,0 C 59 % 89 % 0 % 993,9 hPa 0,0 l/m 2,4 km/h (1 Bft) 0 min 0 min 0,0 km/h (0 Bft)
10.04.2012 20:45 16,2 C 9,2 C 0,0 UV-I 0,0 C 59 % 89 % 0 % 994,1 hPa 0,0 l/m 2,0 km/h (1 Bft) 0 min 0 min 0,0 km/h (0 Bft)
10.04.2012 20:50 16,2 C 9,1 C 0,0 UV-I 0,0 C 59 % 89 % 0 % 994,1 hPa 0,0 l/m 1,6 km/h (1 Bft) 0 min 0 min 4,8 km/h (1 Bft)
10.04.2012 20:55 16,2 C 9,0 C 0,0 UV-I 0,0 C 59 % 90 % 0 % 994,1 hPa 0,0 l/m 0,8 km/h (0 Bft) 0 min 0 min 4,0 km/h (1 Bft)
10.04.2012 21:00 16,2 C 9,1 C 0,0 UV-I 0,0 C 59 % 90 % 0 % 994,1 hPa 0,0 l/m 0,8 km/h (0 Bft) 0 min 0 min 0,0 km/h (0 Bft)
10.04.2012 21:05 16,1 C 9,0 C 0,0 UV-I 0,0 C 59 % 91 % 0 % 994,2 hPa 0,0 l/m 0,8 km/h (0 Bft) 0 min 0 min 0,0 km/h (0 Bft)
10.04.2012 21:10 16,1 C 8,9 C 0,0 UV-I 0,0 C 59 % 91 % 0 % 994,2 hPa 0,0 l/m 0,8 km/h (0 Bft) 0 min 0 min 0,0 km/h (0 Bft)
10.04.2012 21:15 16,1 C 8,9 C 0,0 UV-I 0,0 C 59 % 91 % 0 % 994,2 hPa 0,0 l/m 0,4 km/h (0 Bft) 0 min 0 min 0,0 km/h (0 Bft)
10.04.2012 21:20 16,1 C 8,8 C 0,0 UV-I 0,0 C 59 % 91 % 0 % 994,2 hPa 0,0 l/m 0,0 km/h (0 Bft) 0 min 0 min 0,0 km/h (0 Bft)
10.04.2012 21:25 15,9 C 8,8 C 0,0 UV-I 0,0 C 59 % 91 % 0 % 994,2 hPa 0,0 l/m 0,0 km/h (0 Bft) 0 min 0 min 0,0 km/h (0 Bft)
10.04.2012 21:30 16,0 C 8,9 C 0,0 UV-I 0,0 C 60 % 91 % 0 % 994,2 hPa 0,0 l/m 0,0 km/h (0 Bft) 0 min 0 min 0,0 km/h (0 Bft)
10.04.2012 21:35 15,8 C 8,9 C 0,0 UV-I 0,0 C 60 % 91 % 0 % 994,2 hPa 0,0 l/m 0,0 km/h (0 Bft) 0 min 0 min 0,0 km/h (0 Bft)
10.04.2012 21:40 15,8 C 8,8 C 0,0 UV-I 0,0 C 60 % 91 % 0 % 994,2 hPa 0,0 l/m 0,0 km/h (0 Bft) 0 min 0 min 0,0 km/h (0 Bft)
10.04.2012 21:45 15,9 C 8,8 C 0,0 UV-I 0,0 C 60 % 91 % 0 % 994,2 hPa 0,0 l/m 0,0 km/h (0 Bft) 0 min 0 min 0,0 km/h (0 Bft)
10.04.2012 21:50 15,9 C 8,7 C 0,0 UV-I 0,0 C 60 % 92 % 0 % 994,2 hPa 0,0 l/m 0,0 km/h (0 Bft) 0 min 0 min 0,0 km/h (0 Bft)
10.04.2012 21:55 15,9 C 8,7 C 0,0 UV-I 0,0 C 60 % 92 % 0 % 994,2 hPa 0,0 l/m 0,0 km/h (0 Bft) 0 min 0 min 0,0 km/h (0 Bft)
10.04.2012 22:00 15,9 C 8,8 C 0,0 UV-I 0,0 C 60 % 92 % 0 % 994,2 hPa 0,0 l/m 0,0 km/h (0 Bft) 0 min 2 min 0,0 km/h (0 Bft)
10.04.2012 22:05 15,9 C 8,7 C 0,0 UV-I 0,0 C 60 % 92 % 0 % 994,1 hPa 0,0 l/m 0,0 km/h (0 Bft) 0 min 2 min 0,0 km/h (0 Bft)
10.04.2012 22:10 15,9 C 8,7 C 0,0 UV-I 0,0 C 61 % 92 % 0 % 994,1 hPa 0,0 l/m 0,0 km/h (0 Bft) 0 min 2 min 0,0 km/h (0 Bft)
10.04.2012 22:15 15,9 C 8,7 C 0,0 UV-I 0,0 C 61 % 92 % 0 % 994,1 hPa 0,1 l/m 0,0 km/h (0 Bft) 0 min 2 min 0,0 km/h (0 Bft)
10.04.2012 22:20 15,8 C 8,7 C 0,0 UV-I 0,0 C 61 % 92 % 0 % 994,1 hPa 0,1 l/m 0,0 km/h (0 Bft) 0 min 2 min 0,0 km/h (0 Bft)
10.04.2012 22:25 15,9 C 8,7 C 0,0 UV-I 0,0 C 61 % 92 % 0 % 994,5 hPa 0,2 l/m 0,0 km/h (0 Bft) 0 min 2 min 0,0 km/h (0 Bft)
10.04.2012 22:30 15,8 C 8,6 C 0,0 UV-I 0,0 C 61 % 92 % 0 % 994,5 hPa 0,1 l/m 0,4 km/h (0 Bft) 0 min 2 min 0,0 km/h (0 Bft)
10.04.2012 22:35 15,8 C 8,7 C 0,0 UV-I 0,0 C 61 % 93 % 0 % 994,5 hPa 0,1 l/m 0,4 km/h (0 Bft) 0 min 2 min 0,0 km/h (0 Bft)
10.04.2012 22:40 15,8 C 8,7 C 0,0 UV-I 0,0 C 61 % 93 % 0 % 994,5 hPa 0,1 l/m 0,0 km/h (0 Bft) 0 min 2 min 0,0 km/h (0 Bft)
10.04.2012 22:45 15,8 C 8,7 C 0,0 UV-I 0,0 C 61 % 93 % 0 % 994,5 hPa 0,1 l/m 0,0 km/h (0 Bft) 0 min 2 min 0,0 km/h (0 Bft)
10.04.2012 22:50 15,8 C 8,7 C 0,0 UV-I 0,0 C 61 % 93 % 0 % 994,5 hPa 0,1 l/m 0,0 km/h (0 Bft) 0 min 0 min 0,0 km/h (0 Bft)
10.04.2012 22:55 15,8 C 8,7 C 0,0 UV-I 0,0 C 62 % 93 % 0 % 994,5 hPa 0,1 l/m 0,4 km/h (0 Bft) 0 min 0 min 0,0 km/h (0 Bft)
10.04.2012 23:00 15,8 C 8,5 C 0,0 UV-I 0,0 C 62 % 93 % 0 % 994,5 hPa 0,1 l/m 0,8 km/h (0 Bft) 0 min 0 min 6,0 km/h (2 Bft)
10.04.2012 23:05 15,8 C 8,5 C 0,0 UV-I 0,0 C 62 % 93 % 0 % 994,6 hPa 0,4 l/m 0,8 km/h (0 Bft) 0 min 0 min 0,0 km/h (0 Bft)
10.04.2012 23:10 15,8 C 8,4 C 0,0 UV-I 0,0 C 62 % 93 % 0 % 994,6 hPa 0,2 l/m 0,8 km/h (0 Bft) 0 min 0 min 0,0 km/h (0 Bft)
10.04.2012 23:15 15,8 C 8,5 C 0,0 UV-I 0,0 C 62 % 93 % 0 % 994,6 hPa 0,2 l/m 0,4 km/h (0 Bft) 0 min 0 min 0,0 km/h (0 Bft)
10.04.2012 23:20 15,8 C 8,4 C 0,0 UV-I 0,0 C 62 % 93 % 0 % 994,6 hPa 0,1 l/m 0,4 km/h (0 Bft) 0 min 0 min 0,0 km/h (0 Bft)
10.04.2012 23:25 15,8 C 8,3 C 0,0 UV-I 0,0 C 62 % 93 % 0 % 995,1 hPa 0,2 l/m 0,0 km/h (0 Bft) 0 min 0 min 0,0 km/h (0 Bft)
10.04.2012 23:30 15,8 C 8,3 C 0,0 UV-I 0,0 C 62 % 93 % 0 % 995,1 hPa 0,1 l/m 0,0 km/h (0 Bft) 0 min 0 min 4,0 km/h (1 Bft)
10.04.2012 23:35 15,8 C 8,3 C 0,0 UV-I 0,0 C 62 % 93 % 0 % 995,1 hPa 0,2 l/m 0,0 km/h (0 Bft) 0 min 0 min 0,0 km/h (0 Bft)
10.04.2012 23:40 15,8 C 8,3 C 0,0 UV-I 0,0 C 62 % 93 % 0 % 995,1 hPa 0,0 l/m 0,0 km/h (0 Bft) 0 min 0 min 0,0 km/h (0 Bft)
10.04.2012 23:45 15,8 C 8,3 C 0,0 UV-I 0,0 C 62 % 93 % 0 % 994,8 hPa 0,2 l/m 0,0 km/h (0 Bft) 0 min 0 min 0,0 km/h (0 Bft)
10.04.2012 23:50 15,8 C 8,3 C 0,0 UV-I 0,0 C 62 % 94 % 0 % 994,8 hPa 0,1 l/m 0,0 km/h (0 Bft) 0 min 0 min 0,0 km/h (0 Bft)
10.04.2012 23:55 15,8 C 8,3 C 0,0 UV-I 0,0 C 62 % 94 % 0 % 994,8 hPa 0,1 l/m 0,0 km/h (0 Bft) 0 min 0 min 0,0 km/h (0 Bft)
_ Min-Zeit 07:10 23:25 00:00 00:00 19:30 19:20 00:00 19:05 - 21:20 - - 00:00
Minimum _ 14,8 C 8,3 C 0,0 UV-I 0,0 C 56 % 73 % 0 % 992,1 hPa - 0,0 km/h (0 Bft) - - 0,0 km/h (0 Bft)
_ Max-Zeit 18:05 18:10 16:05 16:05 22:55 00:25 16:05 00:00 23:05 19:25 16:00 00:05 06:30
Maximum _ 16,7 C 13,9 C 1,4 UV-I 3,4 C 62 % 95 % 97 % 997,3 hPa 0,4 l/m 13,7 km/h
S-SO (3 Bft)
2 min 2 min 29,7 km/h
O-NO (5 Bft)
Durchschnitt _ 15,6 C 10,9 C 0,0 UV-I 0,3 C 59 % 87 % 8 % 994,2 hPa #5,8 l/m 5,9 km/h (2 Bft) #4 min. #2:08 h 8,2 km/h (2 Bft)
© 2012 W. Hausmann